Regional Weather Roundup
Issued by NWS San Diego, CA

Home | Current Version | Previous Version | Text Only | Print | Product List | Glossary On
Versions: 1 2 3 4 5 6 7 8 9 10 11 12 13 14 15 16 17 18 19 20 21 22 23 24 25 26 27 28 29 30 31 32 33 34 35 36 37 38 39 40 41 42 43 44 45 46 47 48 49 50
000
ASUS46 KSGX 200411
RWRSGX

SAN DIEGO HOURLY WEATHER ROUNDUP
NATIONAL WEATHER SERVICE SAN DIEGO CA
800 PM PST SUN NOV 19 2017

NOTE: "FAIR" INDICATES FEW OR NO CLOUDS BELOW 12,000 FEET WITH NO
SIGNIFICANT WEATHER AND/OR OBSTRUCTIONS TO VISIBILITY.

CAZ042-043-060-061-PZZ750-775-200500-

GREATER SAN DIEGO AREA

CITY           SKY/WX    TMP DP  RH WIND       PRES   REMARKS
SAN DIEGO AP   PTCLDY    63  52  67 N5        30.02R
NATIONAL CITY    N/A     62  41  45 CALM      30.03R
CHULA VISTA      N/A     59  47  63 CALM      29.93R
IMPERIAL BEACH CLEAR     52  48  86 CALM      30.02R
BROWN FIELD    CLEAR     60  41  49 CALM      30.01R
MIRAMAR MCAS   PTCLDY    62  48  60 N6        30.01R
MONTGOMERY FLD CLEAR     63  48  58 N6        30.01R
GILLESPIE FLD  CLEAR     59  39  47 CALM      30.02R

$$

NORTH SAN DIEGO COUNTY

CITY           SKY/WX    TMP DP  RH WIND       PRES   REMARKS
CAMP PENDLETON CLEAR     48  39  71 CALM      30.00R
OCEANSIDE AP   CLEAR     51  48  89 CALM      30.00R
OCEANSIDE HBR    N/A     58  52  79 CALM      30.02S
VISTA            N/A     56  48  73 CALM      29.98S
CARLSBAD       CLEAR     58  51  78 CALM      30.00R
DEL MAR          N/A     58  55  89 CALM      30.03R
LA JOLLA SCRIP   N/A     62  57  84 N6        30.00S
FALLBROOK        N/A     57  51  81 SE2       30.02R
ESCONDIDO        N/A     60  43  52 CALM      30.03R
SAN MARCOS       N/A     58  45  62 CALM      30.03S

$$

EAST SAN DIEGO COUNTY

CITY           SKY/WX    TMP DP  RH WIND       PRES   REMARKS
RAMONA         CLEAR    N/A N/A N/A CALM      30.03R
SANTEE LAKES     N/A     56  42  59 CALM      30.00R
LA MESA          N/A     61  35  37 CALM      29.94R
JAMUL            N/A     55  39  55 CALM      30.02R
DESCANSO N       N/A     46  18  32 NE7       30.00R
MT. LAGUNA OBS   N/A     57 -23   3 SW3       29.91F
CAMPO            N/A     42  14  32 NE3       30.03R

$$

ORANGE COUNTY AND THE LOS ANGELES BASIN

CITY           SKY/WX    TMP DP  RH WIND       PRES   REMARKS
JOHN WAYNE AP  CLEAR     61  50  67 CALM      30.00S
LAGUNA BEACH     N/A     57  45  63 CALM      29.95S
LAKE FOREST FR   N/A     59  35  41 N1        29.90F
HUNTINGTON BCH   N/A     54  49  82 CALM      30.01S
LOS ALAMITOS   FAIR      57  46  65 CALM      30.00S
FULLERTON      CLEAR     60  32  34 CALM      29.99S
LONG BEACH     CLEAR     60  47  61 NE3       30.00S
L.A. AP        PTCLDY    62  55  77 W6        30.00S
L.A. DOWNTOWN  PTCLDY    59  51  75 CALM      29.99S

$$

THE INLAND EMPIRE

CITY           SKY/WX    TMP DP  RH WIND       PRES   REMARKS
CORONA         CLEAR     59  41  51 S3        30.02R
CHINO          CLEAR     61  38  42 S3        30.02S
ONTARIO        PTCLDY    60  32  34 SE3       30.01R
SAN BERNARDINO PTCLDY    57  16  19 CALM      30.03R
RIVERSIDE AP   CLEAR     60  38  43 CALM      30.02R
MORENO VALLEY    N/A     62  36  38 CALM      28.14R
MARCH ARB      CLEAR     53  30  41 NW6       30.03R
HORSETHIEF CYN   N/A     58  13  17 W3        30.02R
PERRIS           N/A     61  26  26 NE3         N/A
HEMET EAST       N/A     58  14  18 CALM      30.07R
FRENCH VALLEY  FAIR      54  36  50 CALM      30.03S
TEMECULA         N/A     57  41  55 CALM      30.06R

$$

SAN BERNARDINO AND RIVERSIDE COUNTY MOUNTAINS

CITY           SKY/WX    TMP DP  RH WIND       PRES   REMARKS
BIG BEAR AP    PTCLDY    30  -9  17 CALM      30.21F

$$

SOUTHERN DESERT INCLUDING THE COACHELLA VALLEY

CITY           SKY/WX    TMP DP  RH WIND       PRES   REMARKS
PALM SPRINGS   PTCLDY    63  14  15 NW5       30.02S
THOUSAND PALMS   N/A     58  15  18 N1        29.98R
PALM DESERT      N/A     62  32  32 CALM        N/A
THERMAL        PTCLDY    49  33  54 N3        29.98R
BLYTHE         CLEAR     57   7  13 NW6       30.02R
IMPERIAL AP    PTCLDY    58  29  33 SW3       29.99R
EL CENTRO NAS  PTCLDY    56  19  23 W6        30.01R
YUMA AZ        CLEAR     65  13  13 N6        29.99R
MEXICALI       CLEAR     63  18  17 W7        30.00

$$

UPPER DESERT

CITY           SKY/WX    TMP DP  RH WIND       PRES   REMARKS
VICTORVILLE AP PTCLDY    37   0  20 CALM      30.10S
HESPERIA         N/A     44  11  26 W3        30.27R
PALMDALE       PTCLDY    44  13  28 S9        30.10S
LANCASTER      PTCLDY    41   7  24 W6        30.09F
EDWARDS AFB    PTCLDY    43   1  17 SW5       30.07S
DAGGETT        PTCLDY    44   6  21 NW3       30.08S
29 PALMS N     PTCLDY    49   4  16 CALM      30.14R
NEEDLES        PTCLDY    59   7  12 NW7       30.05R

$$

REGIONAL REPORTS

CITY           SKY/WX    TMP DP  RH WIND       PRES   REMARKS
SANTA BARBARA  PTCLDY    56  52  86 CALM      30.00R
SANDBERG       PTCLDY    55   2  11 N6        30.13S
LAS VEGAS NV   CLOUDY    52   9  17 SW5       30.08F
PHOENIX AZ     CLEAR     65  28  24 SW5       29.97R
TIJUANA        PTCLDY    55  46  71 CALM      30.03R
ENSENADA NW      N/A     60  32  35 CALM      29.94R

$$

OFFSHORE ISLANDS

CITY           SKY/WX    TMP DP  RH WIND       PRES   REMARKS
CATALINA ARPT  PTCLDY    62  31  31 W10       30.05R
SAN NICOLAS IS PTCLDY    55  32  41 W17       30.03S

$$

MARINE AND OFFSHORE BUOY REPORTS

STATION/POSITION SKY/WX   TEMP    WIND        PRES    VSBY  SWELL
                          AIR SEA DIR/SP/G                  HT/PER/DIR
                          (F)     (DEG/KT/KT) (MB)    (MI)  (FT/S/D)
TANNER BANKS               61 63  310/ 16/ 19 1016.4          3/250/13
S CLEMENTE BASIN           64 65  300/ 14/ 16 1015.8F         2/240/15
SAN NICOLAS IS.               62                N/A           2/230/12
SO. S. ROSA ISLA           59 60  310/ 17/ 21 1017.1R         3/210/16
W. S. BARBARA CH           59 60  310/ 19/ 25 1016.9R         2/300/ 8
M. S. BARBARA CH           61 60  280/ 12/ 16 1017.0
S. MONICA BASIN               65  330/  8/ 10 1015.8
S PEDRO CHANNEL               61                N/A           2/180/13
CMP PENDLETON NS              62                N/A           2/220/17
OCEANSIDE OFFSHR              63                N/A           2/230/17
TORREY PINES OTR              64                N/A           2/220/13
SAN DIEGO BAY                 67              1016.6R
POINT LOMA SOUTH              63                N/A           2/210/13

$$




USA.gov is the U.S. government's official web portal to all federal, state and local government web resources and services.